Flag for Spain Weather past 2 weeks in Pamplona, Spain

50 °F


Feels Like: 46 °F
Forecast: 42 / 53 °F
Wind: 12 mph from Northwest

Location: Pamplona / Noain

Current Time: Oct 14, 2015 at 1:29:27 AM

Latest Report: Oct 14, 2015 at 12:30 AM

Visibility: N/A

Pressure: 30.07 "Hg

Humidity: 82%

Dew point: 45 °F

Location of PamplonaLocation

Historic Weather in Pamplona — Graph


Pamplona temperature yesterday

Maximum temperature yesterday: 57 °F (at 11:30 AM)
Minimum temperature yesterday: 50 °F (at 4:30 AM)
Average temperature yesterday: 53 °F

Past Weeks' High & Low Weather Summary

High77 °F (Oct 5, 2:30 PM)100% (Sep 29, 11:30 PM)30.18 "Hg (Sep 29, 11:30 PM)
Low41 °F (Oct 9, 8:30 AM)35% (Oct 3, 5:30 PM)29.74 "Hg (Oct 11, 8:00 AM)
Average59 °F73%29.99 "Hg
* Reported Midnight between Sep 28 and Sep 29 — Midnight between Oct 13 and Oct 14, Pamplona, Weather by CustomWeather, © 2015

Note: Actual official high and low records may vary slightly from our data, if they occured in-between our weather recording intervals... More about our weather records


Pamplona weather history for previous 24 hours

Time TempWeatherWind HumidityBarometerVisibility
12:00 AM
Wed, Oct 14
50 °FMostly cloudy.10 mph76%30.07 "HgN/A
11:30 PM
Tue, Oct 13
52 °FPassing clouds.14 mph72%30.07 "HgN/A
11:00 PM50 °FPassing clouds.8 mph76%30.07 "HgN/A
10:30 PM52 °FPassing clouds.14 mph72%30.07 "HgN/A
10:00 PM52 °FPassing clouds.15 mph72%30.07 "HgN/A
9:30 PM52 °FPassing clouds.15 mph72%30.07 "HgN/A
9:00 PM52 °FPassing clouds.16 mph72%30.07 "HgN/A
8:30 PM52 °FPassing clouds.14 mph72%30.04 "HgN/A
8:00 PM52 °FPassing clouds.14 mph72%30.04 "HgN/A
7:30 PM54 °FScattered clouds.15 mph67%30.04 "HgN/A
7:00 PM54 °FPassing clouds.16 mph67%30.04 "HgN/A
6:30 PM55 °FPassing clouds.16 mph63%30.01 "HgN/A
6:00 PM55 °FPassing clouds.21 mph63%30.01 "HgN/A
5:30 PM57 °FPassing clouds.18 mph59%30.01 "HgN/A
5:00 PM57 °FPassing clouds.18 mph59%30.01 "HgN/A
4:30 PM57 °FPassing clouds.20 mph59%30.01 "HgN/A
4:00 PM57 °FPassing clouds.18 mph63%30.01 "HgN/A
3:30 PM55 °FPartly sunny.16 mph72%30.01 "HgN/A
3:00 PM54 °FPartly sunny.14 mph77%30.01 "HgN/A
2:30 PM54 °FPartly sunny.15 mph82%30.04 "HgN/A
2:00 PM54 °FPartly sunny.13 mph88%30.04 "Hg6 mi
1:30 PM57 °FScattered clouds.13 mph72%30.04 "HgN/A
1:00 PM55 °FScattered clouds.10 mph77%30.04 "HgN/A
12:30 PM55 °FPartly sunny.10 mph72%30.04 "HgN/A
11:30 AM57 °FScattered clouds.12 mph72%30.04 "HgN/A
11:00 AM55 °FPartly sunny.12 mph77%30.04 "HgN/A
10:30 AM55 °FPassing clouds.8 mph77%30.04 "HgN/A
10:00 AM55 °FScattered clouds.1 mph77%30.04 "HgN/A
9:30 AM54 °FScattered clouds.1 mph88%30.01 "HgN/A
9:00 AM52 °FPassing clouds.No wind94%30.01 "HgN/A
8:30 AM52 °FPassing clouds.No wind88%30.01 "HgN/A
8:00 AM50 °FPassing clouds.No wind94%30.01 "HgN/A
7:30 AM50 °FPassing clouds.2 mph94%30.01 "HgN/A
7:00 AM52 °FPassing clouds.No wind88%30.01 "HgN/A
6:30 AM52 °FPassing clouds.1 mph88%30.01 "HgN/A
5:30 AM52 °FMostly cloudy.No wind88%30.01 "HgN/A
5:00 AM50 °FPassing clouds.No wind88%30.01 "HgN/A
4:30 AM50 °FClear.3 mph88%30.01 "Hg10 mi
4:00 AM52 °FClear.7 mph82%30.01 "Hg10 mi
3:30 AM52 °FPassing clouds.7 mph82%30.01 "HgN/A
3:00 AM52 °FPassing clouds.7 mph88%30.01 "HgN/A
2:30 AM54 °FLight rain. Passing clouds.5 mph82%30.01 "HgN/A
2:00 AM54 °FPassing clouds.6 mph82%30.01 "HgN/A
1:30 AM54 °FLight rain. Partly cloudy.13 mph82%30.01 "HgN/A
1:00 AM54 °FLight rain. Mostly cloudy.17 mph82%30.01 "HgN/A
Weather by CustomWeather, © 2015

See weather overviewHow to use our weather pages